FORMOSAT-5

Last updated on Mon Sep 21 2026 00:02:46 GMT+0000 (Coordinated Universal Time)

1 42920U 17049A 26263.56685645 .00000053 00000+0 24375-4 0 9994 2 42920 98.2181 336.7216 0012188 145.1525 215.0471 14.50909121480508
UTC large
Height (km)
Speed (km/s)
/
Latitude / Longitude
Inclination (degrees)
Orbital Period (minutes)
Azimuth
Elevation
Range (km)
Doppler Factor

Next 0 passes for location: London (51.5072 / 0.1276)

No passes found over London.
FORMOSAT-5